| time (UTC) | temp C | wind direction | speed KPH | gust KPH | rain 1hr cm | rain 24hr cm | rain mn cm | humidity % | barometer mb |
| 20260902221705 | 20 | 82 | 1.6 | 4.8 | 0.00 | 0.00 | 0.00 | 86 | 1020.4 |
| 20260902221204 | 20 | 118 | 0.0 | 3.2 | 0.00 | 0.00 | 0.00 | 87 | 1020.4 |
| 20260902220705 | 20 | 122 | 0.0 | 8.0 | 0.00 | 0.00 | 0.00 | 86 | 1020.3 |
| 20260902214705 | 21 | 70 | 0.0 | 1.6 | 0.00 | 0.00 | 0.00 | 86 | 1020.2 |
| 20260902214204 | 21 | 69 | 0.0 | 1.6 | 0.00 | 0.00 | 0.00 | 86 | 1020.2 |
| 20260902213705 | 21 | 67 | 0.0 | 1.6 | 0.00 | 0.00 | 0.00 | 86 | 1020.3 |
| 20260902213204 | 21 | 67 | 0.0 | 1.6 | 0.00 | 0.00 | 0.00 | 85 | 1020.3 |
| 20260902210704 | 21 | 256 | 1.6 | 4.8 | 0.00 | 0.03 | 0.00 | 84 | 1019.9 |
| 20260902210205 | 21 | 80 | 0.0 | 3.2 | 0.00 | 0.03 | 0.00 | 84 | 1019.9 |
| 20260902205204 | 21 | 65 | 0.0 | 1.6 | 0.00 | 0.03 | 0.00 | 83 | 1020.2 |
| 20260902204204 | 21 | 123 | 1.6 | 9.7 | 0.00 | 0.03 | 0.00 | 82 | 1020.3 |
| 20260902203705 | 21 | 153 | 1.6 | 4.8 | 0.00 | 0.03 | 0.00 | 85 | 1020.4 |
| 20260902203204 | 21 | 69 | 1.6 | 8.0 | 0.00 | 0.03 | 0.00 | 83 | 1020.4 |
| 20260902200704 | 21 | 244 | 0.0 | 4.8 | 0.00 | 0.03 | 0.00 | 84 | 1020.7 |
| 20260902200205 | 21 | 79 | 1.6 | 4.8 | 0.00 | 0.03 | 0.00 | 84 | 1020.9 |
| 20260902194204 | 21 | 53 | 1.6 | 4.8 | 0.00 | 0.03 | 0.00 | 82 | 1021.0 |
| 20260902192704 | 21 | 116 | 0.0 | 3.2 | 0.00 | 0.03 | 0.00 | 83 | 1021.1 |
| 20260902191704 | 21 | 108 | 1.6 | 8.0 | 0.00 | 0.03 | 0.00 | 83 | 1021.2 |
| 20260902190205 | 21 | 300 | 0.0 | 1.6 | 0.00 | 0.03 | 0.00 | 85 | 1021.3 |
| 20260902185704 | 21 | 307 | 0.0 | 9.7 | 0.00 | 0.03 | 0.00 | 84 | 1021.3 |
| 20260902183705 | 21 | 245 | 1.6 | 4.8 | 0.00 | 0.03 | 0.00 | 85 | 1021.2 |
| 20260902182204 | 21 | 57 | 3.2 | 8.0 | 0.00 | 0.03 | 0.00 | 84 | 1021.0 |
| 20260902180705 | 21 | 153 | 0.0 | 4.8 | 0.00 | 0.03 | 0.00 | 84 | 1021.2 |
| 20260902174205 | 21 | 66 | 0.0 | 0.0 | 0.00 | 0.03 | 0.00 | 84 | 1021.2 |
| 20260902173704 | 21 | 48 | 0.0 | 0.0 | 0.00 | 0.03 | 0.00 | 85 | 1021.2 |
| 20260902172704 | 21 | 82 | 0.0 | 0.0 | 0.00 | 0.03 | 0.00 | 85 | 1021.3 |
| 20260902171704 | 21 | 62 | 0.0 | 0.0 | 0.00 | 0.03 | 0.00 | 86 | 1021.3 |
| 20260902170704 | 21 | 141 | 0.0 | 0.0 | 0.00 | 0.03 | 0.00 | 87 | 1021.5 |
| 20260902170204 | 21 | 84 | 0.0 | 0.0 | 0.00 | 0.03 | 0.00 | 87 | 1021.5 |
| 20260902164704 | 21 | 65 | 0.0 | 0.0 | 0.00 | 0.05 | 0.00 | 87 | 1021.4 |
| 20260902163704 | 20 | 135 | 0.0 | 0.0 | 0.00 | 0.05 | 0.00 | 87 | 1021.4 |
| 20260902163204 | 20 | 48 | 0.0 | 0.0 | 0.00 | 0.05 | 0.00 | 88 | 1021.6 |
| 20260902161204 | 20 | 63 | 0.0 | 0.0 | 0.00 | 0.05 | 0.00 | 88 | 1021.8 |
| 20260902160704 | 20 | 63 | 0.0 | 0.0 | 0.00 | 0.05 | 0.00 | 88 | 1021.9 |
| 20260902152204 | 20 | 26 | 0.0 | 0.0 | 0.00 | 0.05 | 0.00 | 88 | 1022.3 |
| 20260902151704 | 20 | 23 | 0.0 | 0.0 | 0.00 | 0.05 | 0.00 | 88 | 1022.2 |
| 20260902150704 | 20 | 47 | 0.0 | 0.0 | 0.00 | 0.05 | 0.00 | 90 | 1022.5 |
| 20260902150205 | 20 | 34 | 0.0 | 0.0 | 0.00 | 0.05 | 0.00 | 89 | 1022.5 |
| 20260902145704 | 20 | 301 | 0.0 | 0.0 | 0.00 | 0.05 | 0.00 | 90 | 1022.5 |
| 20260902144704 | 19 | 84 | 0.0 | 0.0 | 0.00 | 0.05 | 0.00 | 92 | 1022.5 |
| 20260902135704 | 18 | 98 | 0.0 | 0.0 | 0.00 | 0.08 | 0.00 | 97 | 1021.7 |
| 20260902133204 | 18 | 32 | 0.0 | 0.0 | 0.00 | 0.10 | 0.00 | 98 | 1021.5 |
| 20260902131704 | 17 | 89 | 0.0 | 0.0 | 0.00 | 0.18 | 0.00 | 98 | 1021.6 |
| 20260902130704 | 17 | 70 | 0.0 | 0.0 | 0.00 | 0.23 | 0.00 | 98 | 1021.9 |
| 20260902130204 | 17 | 70 | 0.0 | 0.0 | 0.00 | 0.23 | 0.00 | 99 | 1021.9 |
| 20260902124704 | 17 | 62 | 0.0 | 0.0 | 0.00 | 0.36 | 0.00 | 98 | 1021.8 |
| 20260902124204 | 17 | 68 | 0.0 | 0.0 | 0.00 | 0.43 | 0.00 | 99 | 1021.7 |
| 20260902123704 | 17 | 68 | 0.0 | 0.0 | 0.00 | 0.48 | 0.00 | 99 | 1021.8 |
| 20260902122204 | 17 | 73 | 0.0 | 0.0 | 0.00 | 0.64 | 0.00 | 98 | 1021.9 |
| 20260902120704 | 17 | 5 | 0.0 | 0.0 | 0.00 | 0.71 | 0.00 | 99 | 1022.0 |
| 20260902120204 | 17 | 5 | 0.0 | 0.0 | 0.00 | 0.74 | 0.00 | 99 | 1022.1 |
| 20260902115704 | 17 | 5 | 0.0 | 0.0 | 0.00 | 0.74 | 0.00 | 99 | 1022.0 |
| 20260902114204 | 17 | 5 | 0.0 | 0.0 | 0.00 | 0.74 | 0.00 | 98 | 1022.1 |
| 20260902113704 | 17 | 5 | 0.0 | 0.0 | 0.00 | 0.74 | 0.00 | 98 | 1022.2 |
| 20260902112705 | 16 | 5 | 0.0 | 0.0 | 0.00 | 0.74 | 0.00 | 98 | 1022.1 |
| 20260902111704 | 16 | 5 | 0.0 | 0.0 | 0.00 | 0.74 | 0.00 | 98 | 1021.9 |
| 20260902105704 | 16 | 5 | 0.0 | 0.0 | 0.00 | 0.74 | 0.00 | 98 | 1021.7 |
| 20260902105204 | 16 | 5 | 0.0 | 0.0 | 0.00 | 0.74 | 0.00 | 98 | 1021.7 |
| 20260902103204 | 16 | 72 | 0.0 | 0.0 | 0.00 | 0.74 | 0.00 | 98 | 1021.2 |
| 20260902102204 | 16 | 72 | 0.0 | 0.0 | 0.00 | 0.74 | 0.00 | 98 | 1021.1 |
| 20260902101204 | 16 | 72 | 0.0 | 0.0 | 0.00 | 0.74 | 0.00 | 98 | 1021.2 |
| 20260902100204 | 16 | 72 | 0.0 | 0.0 | 0.00 | 0.74 | 0.00 | 98 | 1021.2 |
| 20260902095704 | 16 | 72 | 0.0 | 0.0 | 0.00 | 0.74 | 0.00 | 98 | 1021.1 |
| 20260902094204 | 16 | 72 | 0.0 | 0.0 | 0.00 | 0.74 | 0.00 | 98 | 1020.8 |
| 20260902092204 | 16 | 72 | 0.0 | 0.0 | 0.00 | 0.74 | 0.00 | 98 | 1020.7 |
| 20260902091704 | 16 | 72 | 0.0 | 0.0 | 0.00 | 0.74 | 0.00 | 98 | 1020.7 |
| 20260902090704 | 16 | 72 | 0.0 | 0.0 | 0.00 | 0.74 | 0.00 | 98 | 1020.5 |
| 20260902090204 | 16 | 72 | 0.0 | 0.0 | 0.00 | 0.74 | 0.00 | 98 | 1020.7 |
| 20260902084704 | 17 | 72 | 0.0 | 0.0 | 0.00 | 0.74 | 0.00 | 97 | 1020.7 |
| 20260902082204 | 17 | 72 | 0.0 | 0.0 | 0.00 | 0.74 | 0.00 | 98 | 1020.5 |
| 20260902081704 | 17 | 72 | 0.0 | 0.0 | 0.00 | 0.74 | 0.00 | 98 | 1020.6 |
| 20260902081203 | 17 | 72 | 0.0 | 0.0 | 0.00 | 0.74 | 0.00 | 98 | 1020.6 |
| 20260902075704 | 17 | 72 | 0.0 | 0.0 | 0.00 | 0.74 | 0.00 | 98 | 1020.9 |
| 20260902075204 | 17 | 72 | 0.0 | 0.0 | 0.00 | 0.74 | 0.00 | 98 | 1020.8 |
| 20260902074704 | 17 | 72 | 0.0 | 0.0 | 0.00 | 0.74 | 0.00 | 98 | 1020.9 |
| 20260902074204 | 17 | 72 | 0.0 | 0.0 | 0.00 | 0.74 | 0.00 | 98 | 1020.9 |
| 20260902073704 | 17 | 72 | 0.0 | 0.0 | 0.00 | 0.74 | 0.00 | 98 | 1020.9 |
| 20260902073204 | 17 | 72 | 0.0 | 0.0 | 0.00 | 0.74 | 0.00 | 98 | 1021.0 |
| 20260902072704 | 17 | 72 | 0.0 | 0.0 | 0.00 | 0.74 | 0.00 | 98 | 1021.0 |
| 20260902071704 | 17 | 72 | 0.0 | 0.0 | 0.00 | 0.74 | 0.00 | 98 | 1020.7 |
| 20260902070704 | 17 | 72 | 0.0 | 0.0 | 0.00 | 0.74 | 0.00 | 98 | 1020.6 |
| 20260902070203 | 17 | 72 | 0.0 | 0.0 | 0.00 | 0.74 | 0.00 | 98 | 1020.7 |
| 20260902065704 | 17 | 72 | 0.0 | 0.0 | 0.00 | 0.74 | 0.00 | 98 | 1020.5 |
| 20260902065204 | 17 | 72 | 0.0 | 0.0 | 0.00 | 0.74 | 0.00 | 98 | 1020.5 |
| 20260902064703 | 17 | 72 | 0.0 | 0.0 | 0.00 | 0.74 | 0.00 | 98 | 1020.5 |
| 20260902064204 | 17 | 72 | 0.0 | 0.0 | 0.00 | 0.74 | 0.00 | 98 | 1020.6 |
| 20260902063704 | 17 | 72 | 0.0 | 0.0 | 0.00 | 0.74 | 0.00 | 98 | 1020.6 |
| 20260902063204 | 17 | 72 | 0.0 | 0.0 | 0.00 | 0.74 | 0.00 | 98 | 1020.5 |
| 20260902062704 | 17 | 72 | 0.0 | 0.0 | 0.00 | 0.74 | 0.00 | 98 | 1020.6 |
| 20260902062204 | 17 | 72 | 0.0 | 0.0 | 0.00 | 0.74 | 0.00 | 98 | 1020.6 |
| 20260902060704 | 17 | 73 | 0.0 | 0.0 | 0.00 | 0.74 | 0.00 | 98 | 1020.6 |
| 20260902060204 | 17 | 73 | 0.0 | 0.0 | 0.00 | 0.74 | 0.00 | 98 | 1020.6 |
| 20260902055704 | 17 | 73 | 0.0 | 0.0 | 0.00 | 0.74 | 0.00 | 98 | 1020.6 |
| 20260902055203 | 17 | 73 | 0.0 | 0.0 | 0.00 | 0.74 | 0.00 | 98 | 1020.6 |
| 20260902054704 | 17 | 73 | 0.0 | 0.0 | 0.00 | 0.74 | 0.00 | 98 | 1020.5 |
| 20260902054204 | 17 | 73 | 0.0 | 0.0 | 0.00 | 0.74 | 0.00 | 98 | 1020.5 |
| 20260902053704 | 17 | 73 | 0.0 | 0.0 | 0.00 | 0.74 | 0.00 | 98 | 1020.5 |
| 20260902053204 | 17 | 73 | 0.0 | 0.0 | 0.00 | 0.74 | 0.00 | 98 | 1020.5 |
| 20260902051704 | 17 | 73 | 0.0 | 0.0 | 0.00 | 0.74 | 0.00 | 97 | 1020.3 |
| 20260902051203 | 17 | 73 | 0.0 | 0.0 | 0.00 | 0.74 | 0.00 | 97 | 1020.3 |
| 20260902050704 | 17 | 73 | 0.0 | 0.0 | 0.00 | 0.74 | 0.00 | 97 | 1020.2 |
| 20260902050204 | 17 | 73 | 0.0 | 0.0 | 0.00 | 0.74 | 0.00 | 97 | 1020.1 |
| 20260902045703 | 17 | 73 | 0.0 | 0.0 | 0.00 | 0.74 | 0.00 | 98 | 1020.1 |
| 20260902044204 | 17 | 73 | 0.0 | 0.0 | 0.00 | 0.74 | 0.00 | 97 | 1019.8 |
| 20260902042704 | 17 | 73 | 0.0 | 0.0 | 0.00 | 0.74 | 0.00 | 97 | 1019.7 |
| 20260902042204 | 17 | 73 | 0.0 | 0.0 | 0.00 | 0.74 | 0.00 | 97 | 1019.7 |
| 20260902041203 | 17 | 73 | 0.0 | 0.0 | 0.00 | 0.74 | 0.00 | 97 | 1019.5 |
| 20260902040704 | 17 | 73 | 0.0 | 0.0 | 0.00 | 0.74 | 0.00 | 97 | 1019.4 |
| 20260902035703 | 17 | 73 | 0.0 | 0.0 | 0.00 | 0.74 | 0.74 | 97 | 1019.2 |
| 20260902035204 | 17 | 73 | 0.0 | 0.0 | 0.00 | 0.74 | 0.74 | 97 | 1019.2 |
| 20260902032704 | 17 | 73 | 0.0 | 0.0 | 0.00 | 0.74 | 0.74 | 97 | 1018.9 |
| 20260902032204 | 17 | 73 | 0.0 | 0.0 | 0.00 | 0.74 | 0.74 | 97 | 1018.9 |
| 20260902031204 | 17 | 73 | 0.0 | 0.0 | 0.00 | 0.74 | 0.74 | 97 | 1019.0 |
| 20260902030203 | 17 | 73 | 0.0 | 0.0 | 0.00 | 0.74 | 0.74 | 97 | 1019.1 |
| 20260902025704 | 17 | 73 | 0.0 | 0.0 | 0.00 | 0.74 | 0.74 | 97 | 1019.1 |
| 20260902025203 | 17 | 73 | 0.0 | 0.0 | 0.00 | 0.74 | 0.74 | 97 | 1019.0 |
| 20260902024703 | 17 | 73 | 0.0 | 0.0 | 0.00 | 0.74 | 0.74 | 97 | 1019.1 |
| 20260902023703 | 17 | 73 | 0.0 | 0.0 | 0.00 | 0.74 | 0.74 | 97 | 1019.1 |
| 20260902023204 | 17 | 73 | 0.0 | 0.0 | 0.00 | 0.74 | 0.74 | 97 | 1019.1 |
| 20260902022704 | 17 | 73 | 0.0 | 0.0 | 0.00 | 0.74 | 0.74 | 97 | 1019.2 |
| 20260902021203 | 17 | 73 | 0.0 | 0.0 | 0.00 | 0.74 | 0.74 | 97 | 1019.2 |
| 20260902012703 | 17 | 74 | 0.0 | 0.0 | 0.00 | 0.74 | 0.74 | 97 | 1018.9 |
| 20260902012203 | 17 | 74 | 0.0 | 0.0 | 0.00 | 0.74 | 0.74 | 97 | 1019.0 |
| 20260902011705 | 17 | 74 | 0.0 | 0.0 | 0.00 | 0.74 | 0.74 | 97 | 1019.0 |
| 20260902005705 | 17 | 74 | 0.0 | 0.0 | 0.00 | 0.74 | 0.74 | 97 | 1019.0 |
| 20260902004704 | 17 | 74 | 0.0 | 0.0 | 0.00 | 0.74 | 0.74 | 97 | 1018.8 |
| 20260902002705 | 17 | 74 | 0.0 | 0.0 | 0.00 | 0.74 | 0.74 | 97 | 1018.7 |
| 20260902001705 | 17 | 74 | 0.0 | 0.0 | 0.00 | 0.74 | 0.74 | 97 | 1018.5 |
| 20260902000705 | 18 | 74 | 0.0 | 0.0 | 0.00 | 0.74 | 0.74 | 97 | 1018.5 |
| 20260901234205 | 18 | 74 | 0.0 | 0.0 | 0.00 | 0.74 | 0.74 | 97 | 1018.3 |
| 20260901233204 | 18 | 74 | 0.0 | 0.0 | 0.00 | 0.74 | 0.74 | 97 | 1018.4 |
| 20260901232704 | 18 | 74 | 0.0 | 0.0 | 0.00 | 0.74 | 0.74 | 97 | 1018.5 |
| 20260901230704 | 18 | 74 | 0.0 | 0.0 | 0.00 | 0.74 | 0.74 | 97 | 1018.4 |
| 20260901230204 | 18 | 74 | 0.0 | 0.0 | 0.00 | 0.74 | 0.74 | 97 | 1018.3 |
| 20260901225205 | 18 | 74 | 0.0 | 0.0 | 0.00 | 0.74 | 0.74 | 97 | 1018.4 |
| 20260901224704 | 18 | 74 | 0.0 | 0.0 | 0.00 | 0.74 | 0.74 | 97 | 1018.4 |